カタログに戻る

NADEZHDA 4

運用中通信PO
NORAD 23179·PAYLOAD·🇷🇺 Russia

打ち上げ Jul 14, 1994 から Plesetsk Cosmodrome

Loading…

次のパス (今後24時間)

TLE

最新Source: Space-Track

元期: Sep 14, 2026, 10:09 UTC

1 23179U 94041A   26257.42302385  .00000056  00000-0  41764-4 0  9996
2 23179  82.9485 320.7682 0034809 197.8458 172.8805 13.76818817615805

AllMySatでNADEZHDA 4をリアルタイム追跡

Download on the App Store